This demonstration page uses our WeatherBlox Daily Observations layout. Learn more.

Left ArrowRight Arrow

39.29038, -76.61219

Hourly Observations for January 1, 2015

Temp ( °F °C ) Dew Point ( °F °C ) Humidity (%) Winds ( mph kmh ) Pressure ( in mb ) Visibility ( mi km ) Precip ( " mm )
12:54 am 00:54 undefined 29 -1.7 12 -11.1 49 49 undefined N/A 30.24 1024 N/A 0.00 0.00
1:54 am 01:54 undefined 30 -1.1 7 -13.9 38 38 undefined N/A 30.22 1023 N/A 0.00 0.00
2:54 am 02:54 undefined 31 -0.6 6 -14.4 35 35 undefined N/A 30.21 1023 N/A 0.00 0.00
3:54 am 03:54 undefined 28 -2.2 12 -11.1 51 51 undefined N/A 30.21 1023 N/A 0.00 0.00
4:54 am 04:54 undefined 27 -2.8 11 -11.7 51 51 undefined N/A 30.20 1023 N/A 0.00 0.00
5:54 am 05:54 undefined 27 -2.8 14 -10 58 58 undefined N/A 30.21 1023 N/A 0.00 0.00
6:54 am 06:54 undefined 26 -3.3 14 -10 60 60 undefined N/A 30.20 1023 N/A 0.00 0.00
7:54 am 07:54 undefined 26 -3.3 13 -10.6 57 57 undefined N/A 30.21 1023 N/A 0.00 0.00
8:54 am 08:54 undefined 30 -1.1 13 -10.6 49 49 undefined N/A 30.24 1024 N/A 0.00 0.00
9:54 am 09:54 undefined 33 0.6 13 -10.6 43 43 undefined N/A 30.24 1024 N/A 0.00 0.00
10:54 am 10:54 undefined 36 2.2 14 -10 40 40 undefined N/A 30.20 1023 N/A 0.00 0.00
11:54 am 11:54 undefined 40 4.4 14 -10 35 35 undefined N/A 30.16 1021 N/A 0.00 0.00
12:54 pm 12:54 undefined 42 5.6 12 -11.1 29 29 undefined N/A 30.11 1020 N/A 0.00 0.00
1:54 pm 13:54 undefined 44 6.7 12 -11.1 27 27 undefined N/A 30.08 1019 N/A 0.00 0.00
2:54 pm 14:54 undefined 44 6.7 13 -10.6 28 28 undefined N/A 30.06 1018 N/A 0.00 0.00
3:54 pm 15:54 undefined 43 6.1 13 -10.6 29 29 undefined N/A 30.06 1018 N/A 0.00 0.00
4:54 pm 16:54 undefined 42 5.6 14 -10 32 32 undefined N/A 30.07 1018 N/A 0.00 0.00
5:54 pm 17:54 undefined 40 4.4 16 -8.9 38 38 undefined N/A 30.05 1018 N/A 0.00 0.00
6:54 pm 18:54 undefined 32 0 9 -12.8 38 38 undefined N/A 30.29 1026 N/A 0.00 0.00
7:54 pm 19:54 undefined 38 3.3 17 -8.3 43 43 undefined N/A 30.05 1018 N/A 0.00 0.00
8:54 pm 20:54 undefined 37 2.8 17 -8.3 44 44 undefined N/A 30.06 1018 N/A 0.00 0.00
9:54 pm 21:54 undefined 37 2.8 18 -7.8 46 46 undefined N/A 30.07 1018 N/A 0.00 0.00
10:54 pm 22:54 undefined 37 2.8 19 -7.2 48 48 undefined N/A 30.10 1019 N/A 0.00 0.00
11:54 pm 23:54 undefined 36 2.2 19 -7.2 50 50 undefined N/A 30.09 1019 N/A 0.00 0.00

Powered by AerisWeather